Location: *
(37.5724°S, 58.0067°E)
Time: 11:42:02
(UTC+00:00)

Cosmos 1975 Rocket - Pass Details

Date: 26 September 2020
Orbit: 603 x 634 km, 82.5° (Epoch: 29 October)

Event Time Altitude Azimuth Distance (km) Brightness Sun altitude
Rises 15:16:28 0° 346° (NNW) 2,868 6.5 -14.2°
Reaches altitude 10° 15:18:40 10° 343° (NNW) 1,976 5.7 -14.6°
Maximum altitude 15:23:01 62° 261° (W) 707 3.6 -15.5°
Drops below altitude 10° 15:27:28 10° 180° (S) 2,025 5.9 -16.3°
Sets 15:29:45 0° 176° (S) 2,946 6.7 -16.8°
